DW3624 Weather Reports


Display with metric or nautical units.
time (UTC)temp
F
wind
direction
speed
MPH
gust
MPH
rain 1hr
in
rain 24hr
in
rain mn
in
humidity
%
barometer
mb
20200707091516 65 247 0.0 0.0 0.00 0.00 0.00 73 1010.2
20200707090015 66 247 0.0 0.0 0.00 0.00 0.00 71 1010.2
20200707084538 66 247 0.0 0.0 0.00 0.00 0.00 71 1010.2
20200707083006 66 247 0.0 0.0 0.00 0.00 0.00 70 1010.3
20200707081751 67 247 0.0 0.0 0.00 0.00 0.00 69 1010.2
20200707080227 67 247 0.0 0.0 0.00 0.00 0.00 68 1010.2
20200707074708 68 247 0.0 0.0 0.00 0.00 0.00 68 1010.3
20200707073120 68 247 0.0 0.0 0.00 0.00 0.00 65 1010.3
20200707071624 69 247 0.0 0.0 0.00 0.00 0.00 64 1010.3
20200707070239 69 247 0.0 0.0 0.00 0.00 0.00 63 1010.2
20200707064619 70 247 0.0 0.0 0.00 0.00 0.00 62 1010.3
20200707063252 70 247 0.0 0.0 0.00 0.00 0.00 62 1010.2
20200707061622 71 247 0.0 0.0 0.00 0.00 0.00 61 1010.1
20200707060128 72 247 0.0 0.0 0.00 0.00 0.00 60 1010.1
20200707054700 72 247 0.0 0.0 0.00 0.00 0.00 59 1010.2
20200707053235 73 247 0.0 0.0 0.00 0.00 0.00 58 1010.2
20200707051602 74 247 0.0 0.0 0.00 0.00 0.00 56 1010.1
20200707050136 75 247 0.0 0.0 0.00 0.00 0.00 56 1009.9
20200707044635 75 247 0.0 0.0 0.00 0.00 0.00 53 1009.8
20200707043140 76 247 0.0 0.0 0.00 0.00 0.00 52 1009.7
20200707041556 77 247 0.0 0.0 0.00 0.00 0.00 50 1009.5
20200707040114 78 247 0.0 0.0 0.00 0.00 0.00 49 1009.5
20200707034601 79 247 0.0 0.0 0.00 0.00 0.00 47 1009.3
20200707033153 80 247 0.0 0.0 0.00 0.00 0.00 47 1009.1
20200707031604 81 247 1.0 0.0 0.00 0.00 0.00 45 1009.1
20200707030119 82 252 2.0 0.0 0.00 0.00 0.00 44 1009.0
20200707024617 83 221 2.0 0.0 0.00 0.00 0.00 44 1008.9
20200707023120 84 238 2.0 0.0 0.00 0.00 0.00 43 1008.9
20200707021559 85 211 2.0 0.0 0.00 0.00 0.00 42 1008.9
20200707020154 86 217 2.0 0.0 0.00 0.00 0.00 41 1009.0
20200707014634 87 239 3.0 0.0 0.00 0.00 0.00 40 1008.9
20200707013106 88 249 3.0 0.0 0.00 0.00 0.00 39 1008.8
20200707011722 89 207 3.0 0.0 0.00 0.00 0.00 38 1008.8
20200707010125 89 210 3.0 0.0 0.00 0.00 0.00 37 1008.6
20200707004537 90 251 4.0 0.0 0.00 0.00 0.00 34 1008.7
20200707003222 90 246 3.0 0.0 0.00 0.00 0.00 32 1008.9
20200707001554 91 228 3.0 0.0 0.00 0.00 0.00 32 1008.9
20200707000046 91 228 3.0 0.0 0.00 0.00 0.00 29 1009.1
20200706234701 91 251 4.0 0.0 0.00 0.00 0.00 25 1009.1
20200706233127 91 180 3.0 0.0 0.00 0.00 0.00 24 1009.2
20200706231533 92 190 4.0 0.0 0.00 0.00 0.00 25 1009.4
20200706230202 92 237 3.0 0.0 0.00 0.00 0.00 24 1009.4
20200706224547 92 234 3.0 0.0 0.00 0.00 0.00 24 1009.6
20200706223035 92 232 3.0 0.0 0.00 0.00 0.00 24 1009.7
20200706221550 92 259 3.0 0.0 0.00 0.00 0.00 22 1009.9
20200706220031 92 234 4.0 0.0 0.00 0.00 0.00 22 1010.0
20200706214545 92 180 3.0 0.0 0.00 0.00 0.00 23 1010.1
20200706213054 92 246 4.0 0.0 0.00 0.00 0.00 24 1010.1
20200706211604 92 236 4.0 0.0 0.00 0.00 0.00 26 1010.2
20200706210113 92 240 3.0 0.0 0.00 0.00 0.00 27 1010.2
20200706204542 92 275 2.0 0.0 0.00 0.00 0.00 26 1010.3
20200706203049 92 224 2.0 0.0 0.00 0.00 0.00 25 1010.5
20200706201555 91 221 4.0 0.0 0.00 0.00 0.00 28 1010.4
20200706200046 91 259 2.0 0.0 0.00 0.00 0.00 29 1010.6
20200706194551 91 234 3.0 0.0 0.00 0.00 0.00 29 1010.5
20200706193055 91 180 3.0 0.0 0.00 0.00 0.00 30 1010.5
20200706191543 90 134 2.0 0.0 0.00 0.00 0.00 28 1010.9
20200706190049 89 246 2.0 0.0 0.00 0.00 0.00 29 1011.0
20200706184513 88 144 3.0 0.0 0.00 0.00 0.00 31 1011.0
20200706183017 88 199 3.0 0.0 0.00 0.00 0.00 30 1011.0
20200706181512 88 241 2.0 0.0 0.00 0.00 0.00 34 1011.0
20200706180017 86 230 2.0 0.0 0.00 0.00 0.00 34 1011.0
20200706174513 86 226 2.0 0.0 0.00 0.00 0.00 36 1011.1
20200706173219 84 269 2.0 0.0 0.00 0.00 0.00 36 1011.2
20200706171625 83 61 2.0 0.0 0.00 0.00 0.00 36 1010.9
20200706170125 82 210 2.0 0.0 0.00 0.00 0.00 37 1010.8
20200706164822 81 238 2.0 0.0 0.00 0.00 0.00 40 1010.7
20200706163119 80 170 1.0 0.0 0.00 0.00 0.00 42 1010.7
20200706161743 79 231 1.0 0.0 0.00 0.00 0.00 43 1010.8
20200706160050 77 244 2.0 0.0 0.00 0.00 0.00 44 1010.6
20200706154558 75 205 1.0 0.0 0.00 0.00 0.00 47 1010.8
20200706153045 73 214 1.0 0.0 0.00 0.00 0.00 51 1010.6
20200706151540 71 161 1.0 0.0 0.00 0.00 0.00 55 1010.7
20200706150045 69 244 1.0 0.0 0.00 0.00 0.00 67 1010.7
20200706144524 67 244 0.0 0.0 0.00 0.00 0.00 70 1010.6
20200706143022 66 244 0.0 0.0 0.00 0.00 0.00 74 1010.6
20200706141606 65 244 0.0 0.0 0.00 0.00 0.00 75 1010.5
20200706140101 64 244 0.0 0.0 0.00 0.00 0.00 76 1010.4
20200706134535 63 244 0.0 0.0 0.00 0.00 0.00 76 1010.3
20200706133044 62 244 0.0 0.0 0.00 0.00 0.00 75 1010.2
20200706131521 62 244 0.0 0.0 0.00 0.00 0.00 73 1010.1
20200706130019 62 244 0.0 0.0 0.00 0.00 0.00 71 1009.9
20200706124528 62 244 0.0 0.0 0.00 0.00 0.00 70 1009.8
20200706123024 62 244 0.0 0.0 0.00 0.00 0.00 69 1009.8
20200706121514 63 244 0.0 0.0 0.00 0.00 0.00 69 1009.7
20200706120018 63 244 0.0 0.0 0.00 0.00 0.00 68 1009.4
20200706114508 63 244 0.0 0.0 0.00 0.00 0.00 67 1009.3
20200706113013 63 244 0.0 0.0 0.00 0.00 0.00 66 1009.2
20200706111515 63 244 0.0 0.0 0.00 0.00 0.00 66 1009.1
20200706104649 64 244 0.0 0.0 0.00 0.00 0.00 64 1009.2
20200706103142 64 244 0.0 0.0 0.00 0.00 0.00 64 1009.3
20200706101729 65 244 0.0 0.0 0.00 0.00 0.00 63 1009.3
20200706100158 65 244 0.0 0.0 0.00 0.00 0.00 64 1009.3
20200706094648 65 244 0.0 0.0 0.00 0.00 0.00 62 1009.3
20200706093145 66 244 0.0 0.0 0.00 0.00 0.00 62 1009.5